Location: Newark
(36.0797°N, 3.9744°E)
Time: 16:02:35
(UTC+00:00)

Vanguard 2 Rocket - Pass Details

Date: 09 December 2019
Orbit: 554 x 3326 km, 32.9° (Epoch: 27 January)

Event Time Altitude Azimuth Distance (km) Brightness Sun altitude
Rises 23:34:49 0° 274° (W) 3,682 - -76.8°
Reaches altitude 10° 23:38:35 10° 256° (WSW) 2,347 - -76.8°
Maximum altitude 23:42:03 18° 214° (SW) 1,594 - -76.7°
Drops below altitude 10° 23:44:57 10° 169° (S) 1,894 - -76.7°
Sets 23:47:34 0° 148° (SSE) 2,713 - -76.6°
